Weather in Pustynya

Russia / Arkhangel'skaya Oblast'     64°30′29″N   48°29′30″E
temp.,
°C
wind,
m/s
gust,
m/s
humid.,
%
clouds,
%
prec.,
mm/h
press.,
hPa
HPBL,
m
20 april, tue
tue2000:00−1wsw28798 0.0 1032130
03:00−2wsw29807 0.0 1033174
06:00+1w39715 0.0 1032278
09:00+5w36515 0.0 1032623
12:00+8w35445 0.0 10311018
15:00+9w34415 0.0 10301174
18:00+7sw11655 0.0 102910
21:00+2ssw118112 0.0 102911
21 april, wed
wed2100:000ssw118540 0.0 102915
03:00−1s118621 0.0 102921
06:00+2sse2572100 0.0 1029136
09:00+6s365410 0.0 1027530
12:00+9sse4642100 0.0 10251099
15:00+10sse4843100 0.0 10231327
18:00+9se51149100 0.0 1020744
21:00+7se51356100 0.0 1018786
22 april, thu
thu2200:00+7sse61261100 0.0 1016998
03:00+6sse61265100 0.0 10151041
06:00+5sse61275100 0.0 10141021
09:00+5sse51282100 0.0 10131075
12:00+5s61179100 0.1 10131169
15:00+6s61174100 0.3 10131138
18:00+6s51175100 0.0 10141039
21:00+5s51178100 0.1 1014664
23 april, fri
fri2300:00+5s51379100 0.0 1013848
03:00+5s61284100 0.0 10121106
06:00+4sw5997100 1.9 1012978
09:00+4sw487693 2.4 10151041
12:00+5sw587375 0.2 10161039
15:00+6sw487085 0.3 10181116
18:00+8sw11635 0.0 101929
21:00+4se227638 0.0 102018
24 april, sat
sat2400:00+3sse238318 0.0 102064
03:00+3se279232 0.0 1020141
06:00+5sse3128059 0.0 1019336
09:00+11sse5125646 0.0 1019801
12:00+14sse694574 0.0 10181527
15:00+15sse684015 0.0 10171787
18:00+14se594351 0.0 10161294
21:00+10sse511605 0.0 1016615